COSMOS 2533

Last updated on Aug. 15, 2020, 5:34 a.m. UTC

1 43867U 18107A   20227.74980036 -.00000038  00000-0  00000+0 0  9996
2 43867   0.0164 119.3073 0000585  32.3238 151.9054  1.00274023  6048
UTC
Height (km)
Latitude
Longitude
Inclination
Orbital Period
UTC large
Height (km)
Speed (km/s)
/
Latitude / Longitude
Inclination (degrees)
Orbital Period (minutes)
Azimuth
Elevation
Range (km)
Doppler Factor
iOS Compass Heading
iOS Angle

Next 30 passes for location: Hong Kong

Rise time Rise Azimuth (degrees) Set time Set Azimuth (degrees) Duration Max altitude (degrees)

No matching passes for this satellites